Flag for Brazil Weather past 2 weeks in Recife, Pernambuco, Brazil

Now
75 °F

Scattered showers. Partly cloudy.


Feels Like: 73 °F
Forecast: 80 / 86 °F
Wind: 3 mph from South

Location: Recife Aeroporto

Current Time: Mar 5, 2015 at 5:34:39 AM

Latest Report: Mar 5, 2015 at 5:00 AM


Visibility: N/A

Pressure: 29.83 "Hg

Humidity: 100%

Dew point: 75 °F

Location of RecifeLocation

Historic Weather in Recife — Graph

°F

Recife temperature yesterday

Maximum temperature yesterday: 82 °F (at 9:00 AM)
Minimum temperature yesterday: 75 °F (at 10:00 AM)
Average temperature yesterday: 80 °F

Past Weeks' High & Low Weather Summary

 TemperatureHumidityPressure
High88 °F (Feb 21, 11:00 AM)94% (Feb 20, 5:00 AM)30.01 "Hg (Feb 20, 5:00 AM)
Low75 °F (Feb 20, 5:00 AM)55% (Feb 25, 1:00 PM)29.80 "Hg (Feb 22, 3:00 PM)
Average82 °F76%29.88 "Hg
* Reported Feb 18 4:00 AM — Mar 5 4:00 AM, Recife, Weather by CustomWeather, © 2015

Note: Actual official high and low records may vary slightly from our data, if they occured in-between our weather recording intervals... More about our weather records

Advertising

Recife weather history for previous 24 hours

 ConditionsComfort  
Time TempWeatherWind HumidityBarometerVisibility
4:00 AM
Thu, Mar 5
75 °FLight rain. Passing clouds.7 mph94%29.83 "Hg3 mi
2:00 AM77 °FPassing clouds.3 mph89%29.83 "HgN/A
1:00 AM79 °FPassing clouds.5 mph84%29.86 "HgN/A
11:00 PM
Wed, Mar 4
81 °FPassing clouds.9 mph79%29.89 "HgN/A
10:00 PM81 °FPassing clouds.9 mph79%29.92 "HgN/A
9:00 PM81 °FPassing clouds.10 mph79%29.92 "HgN/A
8:00 PM81 °FPassing clouds.13 mph79%29.89 "HgN/A
7:00 PM81 °FPartly cloudy.12 mph79%29.89 "HgN/A
6:00 PM81 °FPassing clouds.13 mph79%29.89 "HgN/A
5:00 PM81 °FPartly sunny.13 mph84%29.86 "HgN/A
4:00 PM82 °FBroken clouds.14 mph79%29.86 "HgN/A
3:00 PM82 °FBroken clouds.12 mph79%29.86 "HgN/A
2:00 PM82 °FBroken clouds.9 mph79%29.86 "HgN/A
1:00 PM81 °FScattered clouds.10 mph84%29.89 "HgN/A
12:00 PM81 °FScattered showers. Broken clouds.7 mph89%29.89 "HgN/A
11:00 AM79 °FPartly sunny.5 mph89%29.92 "HgN/A
10:00 AM75 °FLight rain. Broken clouds.17 mph94%29.95 "Hg2 mi
9:00 AM82 °FScattered showers. Broken clouds.8 mph74%29.92 "HgN/A
8:00 AM81 °FScattered showers. Partly sunny.10 mph79%29.92 "HgN/A
7:00 AM81 °FBroken clouds.7 mph79%29.92 "HgN/A
6:00 AM79 °FBroken clouds.6 mph84%29.86 "HgN/A
5:00 AM77 °FPassing clouds.3 mph89%29.86 "HgN/A
Weather by CustomWeather, © 2015

See weather overviewHow to use our weather pages